PST,Max TemperatureF,Mean TemperatureF,Min TemperatureF,Max Dew PointF,MeanDew PointF,Min DewpointF,Max Humidity, Mean Humidity, Min Humidity, Max Sea Level PressureIn, Mean Sea Level PressureIn, Min Sea Level PressureIn, Max VisibilityMiles, Mean VisibilityMiles, Min VisibilityMiles, Max Wind SpeedMPH, Mean Wind SpeedMPH, Max Gust SpeedMPH,PrecipitationIn, CloudCover, Events, WindDirDegrees
2012-11-1,58,45,31,37,35,31,89,68,47,30.08,29.94,29.78,10,10,10,24,8,32,T,4,,183
2012-11-2,59,44,28,44,35,29,93,65,37,30.11,30.06,30.00,10,10,10,13,4,18,0.04,3,Rain,174
2012-11-3,59,49,38,45,42,36,92,75,57,30.21,30.13,30.02,10,10,10,12,4,16,T,3,Rain,68
2012-11-4,70,54,37,48,42,36,100,72,44,30.39,30.32,30.22,10,10,10,10,3,14,0.00,1,,128
2012-11-5,73,55,37,45,41,36,100,67,34,30.40,30.30,30.19,10,10,10,9,2,10,0.00,0,,137
2012-11-6,75,57,38,41,38,36,92,59,25,30.18,30.05,29.97,10,10,10,18,5,24,0.00,0,,135
2012-11-7,50,38,25,42,29,23,85,61,36,30.12,30.03,29.91,10,10,10,20,7,24,0.00,3,,315
2012-11-8,46,35,23,29,27,24,92,71,49,29.88,29.76,29.68,10,10,10,12,5,14,0.00,6,,313
2012-11-9,41,35,29,30,28,17,100,69,38,29.86,29.81,29.77,10,6,1,15,3,18,0.06,7,Snow,323
2012-11-10,38,31,23,29,26,20,92,73,54,30.25,29.99,29.82,10,7,1,15,4,18,0.03,6,Snow,308
2012-11-11,42,29,15,32,24,13,92,70,48,30.32,30.29,30.24,10,10,10,12,5,15,T,5,Rain,129
2012-11-12,47,39,31,39,34,30,96,83,70,30.29,30.24,30.19,10,10,7,12,4,16,0.04,7,Rain,129
2012-11-13,50,39,27,38,33,26,100,81,61,30.27,30.21,30.14,10,10,10,13,4,17,0.00,2,,164
2012-11-14,51,38,24,34,29,23,100,75,50,30.32,30.27,30.20,10,10,7,9,1,10,0.00,1,,156
2012-11-15,50,35,19,35,28,18,92,74,56,30.25,30.12,29.98,10,10,9,12,2,15,0.00,3,,205
2012-11-16,54,43,31,34,32,29,92,67,41,29.99,29.91,29.83,10,10,10,15,5,20,0.00,3,,155
2012-11-17,55,42,29,38,34,26,96,73,50,29.84,29.71,29.55,10,10,10,28,8,35,0.01,5,Rain,185
2012-11-18,46,39,32,29,27,24,70,60,49,29.92,29.87,29.82,10,10,10,22,10,31,0.00,3,,161
2012-11-19,56,49,41,41,34,30,89,66,43,29.83,29.76,29.66,10,10,6,33,18,45,0.12,3,Rain,180
2012-11-20,54,47,39,42,38,35,92,76,59,29.80,29.73,29.67,10,10,5,25,7,35,0.19,5,Rain,190
2012-11-21,46,37,28,37,30,23,85,65,45,30.32,29.97,29.61,10,10,6,25,7,35,0.06,5,Rain,271
2012-11-22,51,37,23,33,27,21,96,69,42,30.40,30.35,30.31,10,10,10,12,4,15,0.00,0,,143
2012-11-23,54,45,35,39,31,28,70,58,45,30.31,30.23,30.16,10,10,10,17,7,23,T,2,Rain,159
2012-11-24,52,45,37,46,41,33,93,88,82,30.19,30.15,30.10,10,9,5,10,3,14,0.25,8,Rain,40
2012-11-25,44,34,24,31,28,22,92,73,53,30.25,30.21,30.14,10,10,10,9,2,12,0.00,4,,92
2012-11-26,39,30,21,31,24,19,100,85,70,30.24,30.17,30.12,10,5,0,8,1,9,0.00,5,Fog,284
2012-11-27,33,29,24,31,27,21,100,92,84,30.21,30.11,30.00,4,1,0,7,2,8,0.00,8,Fog,309
2012-11-28,41,34,26,34,28,26,100,96,92,30.04,29.87,29.71,10,3,0,12,4,14,T,6,Fog-Snow,296
2012-11-29,50,44,38,40,35,30,89,70,50,29.83,29.69,29.56,10,10,9,26,8,39,0.09,4,Rain,170
2012-11-30,53,44,35,39,36,32,100,77,54,29.60,29.57,29.51,10,10,10,22,9,30,0.00,3,,178